sat.trackr.live / text

‹ back to catalog

STARLINK-36410

NORAD 67337 · 2026-003D

PAYLOAD ACTIVE UNKNOWN

§ Identity

Operator
Country
US
Launch date
2026-01-09
Launch site
AFETR
Launch vehicle
Mass (kg)
RCS (m²)

Purposes: comms

External: N2YO · Heavens-Above · Gunter

§ Orbital elements

Epoch: 2026-05-24T18:16:48.804672Z

Period
94.27 min
Inclination
43.0020°
Eccentricity
0.0004060
Mean motion
15.27584658 rev/d
Perigee alt
480.2 km
Apogee alt
485.8 km
Semi-major
6,861.2 km
B*
5.4632e-4
RAAN
157.8486°
Arg perigee
265.9666°
Mean anomaly
94.0722°
Rev number
2,045

§ Raw data

STARLINK-364101 67337U 26003D   26144.76167598  .00014806  00000+0  54632-3 0  99942 67337  43.0020 157.8486 0004060 265.9666  94.0722 15.27584658 20452

JSON: /api/v1/satellites/67337 · /tle

For live sub-satellite position, see the globe view (requires WebGL).

§ Visibility from observer

Set your observer location to see the next 7 days of passes ≥ 10°. The values pass through the URL so the page stays shareable.

No JS? Fill the form by hand. The geolocation button needs JavaScript.